Location: Pilipovskiye Korichintsy
(49.1833°N, 27.4667°E)
Time: 23:45:44
(UTC+00:00)

Cosmos 841 Rocket - Visible Passes

Search period start: 23 October 2020 00:00
Search period end: 02 November 2020 00:00
Orbit: 746 x 773 km, 74.0° (Epoch: 23 October)

Date Brightness Start Highest point End Pass type
(mag) Time Alt. Az. Time Alt. Az. Time Alt. Az.
25 Oct 6.0 04:05:59 10° N 04:08:43 14° NE 04:11:25 10° ENE visible
28 Oct 6.0 03:48:35 10° N 03:52:04 17° NE 03:55:30 10° E visible
29 Oct 6.2 03:09:56 10° NNE 03:11:54 12° NE 03:13:52 10° ENE visible
30 Oct 5.1 04:10:34 10° N 04:15:18 33° NE 04:19:58 10° ESE visible
31 Oct 5.7 03:31:19 10° N 03:35:21 22° NE 03:39:21 10° E visible
01 Nov 6.1 02:52:20 10° N 02:55:17 15° NE 02:58:13 10° ENE visible
